Mullan, ID

12:46 PM PDT on August 25, 2016 (GMT -0700)
Mullan Pass

Weather History for KMLP - October, 2011

Change the Weather History Date:

Friday, October 14, 2011

  Actual Average (K3TH) Record (K3TH)
Temperature  
Mean Temperature 34 °F -  
Max Temperature 37 °F 56 °F 63 °F (2002)
Min Temperature 30 °F 35 °F 28 °F (2002)
Degree Days  
Heating Degree Days 32    
Moisture  
Dew Point 33 °F    
Average Humidity 95    
Maximum Humidity 100    
Minimum Humidity 75    
Precipitation  
Precipitation 0.14 in - - ()
Sea Level Pressure  
Sea Level Pressure 29.94 in    
Wind  
Wind Speed 5 mph (SSE)    
Max Wind Speed 9 mph    
Max Gust Speed -    
Visibility 3 miles    
Events Fog , Rain , Snow    
Averages and records for this station are not official NWS values.
T = Trace of Precipitation, MM = Missing Value Source: NWS Daily Summary

Daily Weather History Graph

Daily Weather History Graph

Search for Another Location

Airport or City:

Trip Planner

Search our weather history database for the weather conditions in past years. The results will help you decide how hot, cold, wet, or windy it might be!

Date:

Astronomy

Oct. 14, 2011 Rise Set
Actual Time 6:59 AM PDT 5:56 PM PDT
Civil Twilight 6:28 AM PDT 6:27 PM PDT
Nautical Twilight 5:53 AM PDT 7:03 PM PDT
Astronomical Twilight 5:17 AM PDT 7:38 PM PDT
Moon 6:57 PM PDT (10/14) 9:47 AM PDT (10/14)
Length of Visible Light 11h 59m
Length of Day
10h 57m
Waning Gibbous, 94% of the Moon is Illuminated
Oct 14
Waning Gibbous
Oct 19
Last Quarter
Oct 26
New
Nov 2
First Quarter
Nov 10
Full

Hourly Weather History & Observations

Time (PDT) Temp. Windchill Dew Point Humidity Pressure Visibility Wind Dir Wind Speed Gust Speed Precip Events Conditions
12:53 AM 33.1 °F 28.7 °F 27.0 °F 78% 29.97 in 10.0 mi ESE 4.6 mph - N/A   Overcast
1:53 AM 33.1 °F 28.7 °F 27.0 °F 78% 29.96 in 10.0 mi ESE 4.6 mph - N/A   Overcast
2:15 AM 33.8 °F 27.7 °F 26.6 °F 75% 30.06 in 10.0 mi ESE 6.9 mph - N/A   Overcast
2:53 AM 33.1 °F 27.7 °F 27.0 °F 78% 29.96 in 10.0 mi ESE 5.8 mph - N/A   Overcast
3:53 AM 32.0 °F 26.4 °F 27.0 °F 82% 29.94 in 10.0 mi SE 5.8 mph - N/A   Overcast
4:53 AM 32.0 °F 27.5 °F 28.0 °F 85% 29.94 in 10.0 mi SE 4.6 mph - N/A   Overcast
6:53 AM 32.0 °F 25.6 °F 27.0 °F 82% 29.94 in 10.0 mi SE 6.9 mph - N/A   Overcast
7:53 AM 32.0 °F 26.4 °F 28.0 °F 85% 29.94 in 10.0 mi SE 5.8 mph - N/A   Overcast
8:53 AM 32.0 °F 26.4 °F 30.0 °F 92% 29.94 in 4.0 mi SSE 5.8 mph - 0.00 in Snow Light Snow
9:04 AM 32.0 °F 25.6 °F 30.2 °F 93% 30.02 in 2.5 mi SSE 6.9 mph - 0.00 in Snow Light Snow
9:18 AM 30.2 °F 21.9 °F 30.2 °F 100% 30.02 in 2.5 mi SSE 9.2 mph - 0.00 in Snow Light Snow
9:26 AM 30.2 °F 24.3 °F 30.2 °F 100% 30.01 in 1.2 mi SSE 5.8 mph - 0.00 in Snow Light Snow
9:29 AM 30.2 °F 24.3 °F 30.2 °F 100% 30.01 in 0.8 mi SSE 5.8 mph - 0.00 in Snow Light Snow
9:43 AM 30.2 °F 24.3 °F 30.2 °F 100% 30.01 in 0.2 mi SSE 5.8 mph - 0.01 in Fog , Snow Light Snow
9:53 AM 30.9 °F 24.3 °F 30.9 °F 100% 29.93 in 0.2 mi SSE 6.9 mph - 0.01 in Fog , Snow Light Snow
10:50 AM 30.2 °F 25.4 °F 30.2 °F 100% 30.01 in 0.2 mi South 4.6 mph - 0.03 in Fog , Snow Light Snow
10:53 AM 30.9 °F 27.5 °F 30.9 °F 100% 29.93 in 0.2 mi SSE 3.5 mph - 0.03 in Fog , Snow Light Snow
12:53 PM 34.0 °F 28.8 °F 34.0 °F 100% 29.90 in 0.2 mi SW 5.8 mph - N/A Fog Fog
1:53 PM 36.0 °F 30.3 °F 36.0 °F 100% 29.88 in 0.2 mi SW 6.9 mph - N/A Fog Fog
2:10 PM 35.6 °F 31.7 °F 35.6 °F 100% 29.99 in 0.2 mi Variable 4.6 mph - N/A Fog Fog
2:26 PM 35.6 °F 31.7 °F 35.6 °F 100% 29.99 in 0.2 mi Variable 4.6 mph - N/A Fog Fog
2:53 PM 36.0 °F 29.6 °F 36.0 °F 100% 29.88 in 0.2 mi SW 8.1 mph - N/A Fog Fog
3:53 PM 37.0 °F 32.4 °F 37.0 °F 100% 29.88 in 0.2 mi Variable 5.8 mph - 0.00 in Fog , Rain Light Rain
4:53 PM 37.0 °F - 37.0 °F 100% 29.88 in 0.2 mi Calm Calm - 0.01 in Fog Fog
5:53 PM 37.0 °F - 37.0 °F 100% 29.86 in 0.2 mi Calm Calm - 0.02 in Fog , Rain Light Rain
6:53 PM 37.0 °F 34.5 °F 37.0 °F 100% 29.86 in 0.2 mi West 3.5 mph - 0.03 in Fog , Rain Light Rain
7:28 PM 37.4 °F 33.8 °F 37.4 °F 100% 29.96 in 0.5 mi Variable 4.6 mph - 0.01 in Fog Fog
7:39 PM 37.4 °F 34.9 °F 37.4 °F 100% 29.96 in 1.0 mi Variable 3.5 mph - 0.01 in Rain Light Rain
7:53 PM 37.0 °F 33.3 °F 37.0 °F 100% 29.86 in 0.8 mi Variable 4.6 mph - 0.01 in   Mist
8:04 PM 37.4 °F 34.9 °F 37.4 °F 100% 29.97 in 0.2 mi Variable 3.5 mph - 0.00 in Fog , Rain Light Rain
8:14 PM 35.6 °F 31.7 °F 35.6 °F 100% 29.96 in 0.2 mi NNW 4.6 mph - 0.00 in Fog , Rain Light Rain
8:53 PM 36.0 °F 30.3 °F 36.0 °F 100% 29.87 in 0.2 mi Variable 6.9 mph - 0.02 in Fog , Rain Light Rain
9:15 PM 35.6 °F 30.7 °F 35.6 °F 100% 29.96 in 0.2 mi Variable 5.8 mph - 0.01 in Fog , Rain Light Rain
10:08 PM 35.6 °F - 35.6 °F 100% 29.95 in 0.2 mi Calm Calm - 0.01 in Fog , Rain Light Rain
10:53 PM 36.0 °F - 36.0 °F 100% 29.85 in 0.2 mi Calm Calm - 0.01 in Fog Fog
11:53 PM 37.0 °F - 37.0 °F 100% 29.83 in 0.2 mi Calm Calm - N/A Fog Fog